Regional Weather Roundup
Issued by NWS

Home | Current Version | Previous Version | Graphics & Text | Print | Product List | Glossary On
Versions: 1 2 3 4 5 6 7 8 9 10 11 12 13 14 15 16 17 18 19 20 21 22 23 24 25 26 27 28 29 30 31 32 33 34 35 36 37 38 39 40 41 42 43 44 45 46 47 48 49 50
341
ASUS45 KCYS 251510
RWRWY

WYOMING REGIONAL WEATHER ROUNDUP
NATIONAL WEATHER SERVICE CHEYENNE WY
900 AM MDT SUN SEP 25 2016

NOTE:  "FAIR" INDICATES FEW OR NO CLOUDS BELOW 12,000 FEET
WITH NO SIGNIFICANT WEATHER AND/OR OBSTRUCTIONS TO VISIBILITY.

WYZ001-251600-
YELLOWSTONE NATIONAL PARK

CITY           SKY/WX    TMP DP  RH WIND       PRES   REMARKS
LK YELLOWSTONE   N/A     35  32  88 CALM      30.55R
W YELLOWSTONE  NOT AVBL

$$
WYZ002>013-054>058-071-098>099-251600-
NORTHERN WYOMING

CITY           SKY/WX    TMP DP  RH WIND       PRES   REMARKS
JACKSON        MOSUNNY   36  34  93 CALM      30.54R
CODY           FAIR      45  37  73 CALM      30.46S
GREYBULL       CLOUDY    45  42  89 SE3       30.44S FOG
WORLAND        FAIR      46  42  86 CALM      30.44S
SHERIDAN       FAIR      53  41  63 W5        30.41S
BUFFALO        FAIR      50  38  63 CALM      30.44R
GILLETTE       FAIR      49  42  77 NW16      30.39S
HULETT         FAIR      46  36  66 W8        30.39R
NEWCASTLE      FAIR      46  37  71 NW16      30.38R

$$
WYZ014>020-022>026-101>103-251600-
CENTRAL WYOMING

CITY           SKY/WX    TMP DP  RH WIND       PRES   REMARKS
BIG PINEY      FAIR      39  34  82 CALM      30.52R
PINEDALE       FAIR      34  32  93 NW6       30.53R WCI  29
DUBOIS         FAIR      43  30  61 NW8       30.49R
LANDER         FAIR      43  35  73 NW6       30.47R
RIVERTON       FAIR      44  42  93 NW6       30.47R
CASPER         FAIR      46  39  76 SW12      30.46R
DOUGLAS        CLOUDY    50  40  68 W8        30.46R

$$
WYZ021-027>030-104>119-251600-
SOUTHERN WYOMING

CITY           SKY/WX    TMP DP  RH WIND       PRES   REMARKS
EVANSTON       FAIR      39  33  79 CALM      30.53R
FORT BRIDGER   SUNNY     43  34  70 W3        30.56R
ROCK SPRINGS   FAIR      41  35  79 W6        30.52R
DIXON          FAIR      40  37  89 CALM      30.56R
RAWLINS        FAIR      37  35  92 SW9       30.52R WCI  30
SARATOGA       FAIR      41  36  81 S7        30.54R
LARAMIE        FAIR      38  33  82 SE6       30.50R WCI  33
CHEYENNE       FAIR      49  33  54 NW14      30.48R
TORRINGTON     FAIR      51  39  63 W7        30.42R
PINE BLUFFS    FAIR      52  34  50 NW13G18   30.47R

$$




USA.gov is the U.S. government's official web portal to all federal, state and local government web resources and services.